| time (UTC) | temp F | wind direction | speed knots | gust knots | rain 1hr in | rain 24hr in | rain mn in | humidity % | barometer mb |
| 20260503190001 | 74 | 281 | 0.0 | 2.6 | 0.00 | 0.00 | 0.00 | 32 | 1012.6 |
| 20260503184607 | 73 | 281 | 0.0 | 3.5 | 0.00 | 0.00 | 0.00 | 34 | 1012.9 |
| 20260503183055 | 73 | 291 | 0.0 | 2.6 | 0.00 | 0.00 | 0.00 | 35 | 1013.4 |
| 20260503181554 | 72 | 304 | 1.7 | 5.2 | 0.00 | 0.00 | 0.00 | 35 | 1013.5 |
| 20260503180057 | 71 | 345 | 0.9 | 4.3 | 0.00 | 0.00 | 0.00 | 36 | 1013.9 |
| 20260503174552 | 69 | 344 | 1.7 | 8.7 | 0.00 | 0.00 | 0.00 | 37 | 1014.3 |
| 20260503173043 | 70 | 346 | 1.7 | 5.2 | 0.00 | 0.00 | 0.00 | 37 | 1014.4 |
| 20260503171540 | 69 | 346 | 0.9 | 3.5 | 0.00 | 0.00 | 0.00 | 38 | 1014.5 |
| 20260503081532 | 58 | 42 | 1.7 | 5.2 | 0.00 | 0.00 | 0.00 | 52 | 1015.3 |
| 20260503071518 | 59 | 42 | 1.7 | 4.3 | 0.00 | 0.00 | 0.00 | 52 | 1016.0 |
| 20260503054506 | 60 | 42 | 1.7 | 5.2 | 0.00 | 0.00 | 0.00 | 50 | 1015.6 |
| 20260503053006 | 60 | 42 | 1.7 | 6.1 | 0.00 | 0.00 | 0.00 | 49 | 1015.5 |
| 20260503051505 | 61 | 41 | 3.5 | 10.4 | 0.00 | 0.00 | 0.00 | 48 | 1015.6 |
| 20260503050005 | 61 | 41 | 2.6 | 7.8 | 0.00 | 0.00 | 0.00 | 48 | 1015.6 |
| 20260503044506 | 61 | 41 | 2.6 | 7.8 | 0.00 | 0.00 | 0.00 | 47 | 1015.5 |
| 20260503043004 | 62 | 41 | 3.5 | 11.3 | 0.00 | 0.00 | 0.00 | 46 | 1015.4 |
| 20260503041506 | 62 | 36 | 4.3 | 10.4 | 0.00 | 0.00 | 0.00 | 45 | 1015.6 |
| 20260503040004 | 63 | 34 | 1.7 | 7.8 | 0.00 | 0.00 | 0.00 | 44 | 1015.7 |
| 20260503034502 | 64 | 35 | 1.7 | 5.2 | 0.00 | 0.00 | 0.00 | 43 | 1015.6 |
| 20260503033001 | 64 | 34 | 1.7 | 7.0 | 0.00 | 0.00 | 0.00 | 41 | 1015.5 |
| 20260503031603 | 65 | 34 | 0.9 | 7.0 | 0.00 | 0.00 | 0.00 | 41 | 1015.5 |
| 20260503024600 | 66 | 35 | 2.6 | 5.2 | 0.00 | 0.00 | 0.00 | 39 | 1014.9 |
| 20260503023100 | 67 | 35 | 1.7 | 7.0 | 0.00 | 0.00 | 0.00 | 38 | 1014.7 |
| 20260503021558 | 67 | 35 | 0.0 | 5.2 | 0.00 | 0.00 | 0.00 | 37 | 1014.6 |
| 20260503020058 | 68 | 33 | 1.7 | 7.0 | 0.00 | 0.00 | 0.00 | 36 | 1014.5 |
| 20260503014603 | 68 | 33 | 2.6 | 5.2 | 0.00 | 0.00 | 0.00 | 36 | 1014.1 |
| 20260503013057 | 69 | 44 | 0.9 | 2.6 | 0.00 | 0.00 | 0.00 | 35 | 1013.9 |
| 20260503011555 | 69 | 44 | 1.7 | 3.5 | 0.00 | 0.00 | 0.00 | 34 | 1013.8 |
| 20260503010056 | 69 | 51 | 0.0 | 3.5 | 0.00 | 0.00 | 0.00 | 34 | 1013.7 |
| 20260503004557 | 70 | 57 | 0.0 | 3.5 | 0.00 | 0.00 | 0.00 | 33 | 1013.7 |
| 20260503003056 | 70 | 58 | 0.0 | 2.6 | 0.00 | 0.00 | 0.00 | 33 | 1013.9 |
| 20260503001554 | 71 | 58 | 0.0 | 2.6 | 0.00 | 0.00 | 0.00 | 32 | 1013.7 |
| 20260503000052 | 71 | 57 | 0.0 | 2.6 | 0.00 | 0.00 | 0.00 | 32 | 1013.8 |
| 20260502234555 | 70 | 58 | 0.0 | 2.6 | 0.00 | 0.00 | 0.00 | 33 | 1013.9 |
| 20260502233051 | 70 | 56 | 0.0 | 3.5 | 0.00 | 0.00 | 0.00 | 32 | 1014.0 |
| 20260502231548 | 70 | 56 | 0.0 | 1.7 | 0.00 | 0.00 | 0.00 | 33 | 1014.1 |
| 20260502230047 | 70 | 56 | 0.0 | 2.6 | 0.00 | 0.00 | 0.00 | 33 | 1014.3 |
| 20260502224547 | 70 | 45 | 0.0 | 2.6 | 0.00 | 0.00 | 0.00 | 33 | 1014.4 |
| 20260502223045 | 70 | 41 | 0.9 | 3.5 | 0.00 | 0.00 | 0.00 | 33 | 1014.6 |
| 20260502221539 | 69 | 38 | 1.7 | 3.5 | 0.00 | 0.00 | 0.00 | 34 | 1014.7 |
| 20260502220038 | 69 | 37 | 2.6 | 6.1 | 0.00 | 0.00 | 0.00 | 34 | 1015.0 |
| 20260502214549 | 69 | 56 | 1.7 | 7.8 | 0.00 | 0.00 | 0.00 | 34 | 1015.4 |
| 20260502213039 | 69 | 48 | 0.9 | 9.6 | 0.00 | 0.00 | 0.00 | 35 | 1015.5 |
| 20260502211535 | 69 | 55 | 0.0 | 3.5 | 0.00 | 0.00 | 0.00 | 35 | 1015.8 |
| 20260502210036 | 68 | 57 | 0.9 | 6.1 | 0.00 | 0.00 | 0.00 | 36 | 1016.2 |
| 20260502204531 | 67 | 52 | 2.6 | 6.1 | 0.00 | 0.00 | 0.00 | 37 | 1016.5 |
| 20260502203030 | 68 | 53 | 0.9 | 6.1 | 0.00 | 0.00 | 0.00 | 37 | 1016.7 |
| 20260502201526 | 66 | 52 | 0.9 | 4.3 | 0.00 | 0.00 | 0.00 | 39 | 1017.0 |
| 20260502200026 | 65 | 53 | 0.9 | 6.1 | 0.00 | 0.00 | 0.00 | 39 | 1017.2 |
| 20260502194531 | 65 | 64 | 0.9 | 3.5 | 0.00 | 0.00 | 0.00 | 39 | 1017.4 |
| 20260502193025 | 65 | 75 | 0.9 | 5.2 | 0.00 | 0.00 | 0.00 | 39 | 1017.7 |
| 20260502191523 | 65 | 66 | 0.9 | 5.2 | 0.00 | 0.00 | 0.00 | 40 | 1017.8 |